Regional Weather Roundup
Issued by NWS Jackson, KY

Home | Current Version | Previous Version | Graphics & Text | Print | Product List | Glossary On
Versions: 1 2 3 4 5 6 7 8 9 10 11 12 13 14 15 16 17 18 19 20 21 22 23 24 25 26 27 28 29 30 31 32 33 34 35 36 37 38 39 40 41 42 43 44 45 46 47 48 49 50
000
ASUS43 KJKL 200311
RWRJKL

EAST KENTUCKY HOURLY WEATHER ROUNDUP
NATIONAL WEATHER SERVICE JACKSON KY
1100 PM EDT TUE AUG 19 2014

NOTE: "FAIR" INDICATES FEW OR NO CLOUDS BELOW 12,000 FEET WITH
NO SIGNIFICANT WEATHER AND/OR OBSTRUCTIONS TO VISIBILITY.

* THESE REPORTS ARE NOT UNDER NWS QUALITY CONTROL AND MAY NOT
  REPORT WEATHER SUCH AS PRECIPITATION AND FOG.

KYZ079-080-083-085-087-088-110-112-115-119-120-200400
...EASTERN KENTUCKY...

CITY           SKY/WX    TMP DP  RH WIND       PRES   REMARKS
JACKSON        PTCLDY    74  70  87 CALM      29.93R
LONDON         CLEAR     74  70  87 CALM      29.94R
SOMERSET*      MOCLDY    72  72 100 CALM      29.92F FOG
MONTICELLO*    CLEAR     70  69  96 CALM      29.93S FOG
WILLIAMSBURG*  CLEAR     72  72 100 SE3       29.94S
MIDDLESBORO*   CLEAR     71  68  91 CALM      29.96R
HARLAN APT*    CLEAR     70  70 100 MISG      29.97R
BLACK MTN*       N/A     66  63  88 S3          N/A
PIKEVILLE APT* CLEAR     73  70  88 CALM      29.93F
BIG SANDY*     CLEAR     73  71  95 W3        29.92R
MOREHEAD APT*  PTCLDY    73  70  88 S5        29.92S
$$

KYZ035-036-041-042-044-050-067-078-099-200400
...CENTRAL KENTUCKY...

CITY           SKY/WX    TMP DP  RH WIND       PRES   REMARKS
MT STERLING*   PTCLDY    73  70  88 SW3       29.91F
FLEMING/MASON* PTCLDY    73  70  88 S6        29.89S
DANVILLE*      PTCLDY    72  70  94 CALM      29.92R
RICHMOND*      PTCLDY    75  68  78 S5        29.91S
LEXINGTON      MOCLDY    76  70  82 S6        29.89F
FRANKFORT      CLOUDY    76  70  82 S5        29.86F
$$

KYZ091>093-OHZ055-061-077-WVZ005-015-034-035-042-200400
...SOUTHERN OHIO/WEST VIRGINIA...

CITY           SKY/WX    TMP DP  RH WIND       PRES   REMARKS
COVINGTON      MOCLDY    76  68  76 S6        29.86S
COLUMBUS       MOCLDY    82  68  62 SW6       29.84R
DAYTON         CLOUDY    79  69  71 SW6       29.85S
WILMINGTON     MOCLDY    74  67  78 CALM      29.86S
HUNTINGTON     CLEAR     73  71  93 CALM      29.88R
CHARLESTON     CLEAR     72  72 100 CALM      29.90R FOG
PINEVILLE*     CLOUDY    70  70 100 MISG      30.01S FOG
BECKLEY        PTCLDY    68  66  93 S5        30.00S FOG
BLUEFIELD      CLEAR     70  66  87 W3        30.03S
$$

VAZ002-007-008-TNZ017-027-036-066-071-200400
...SOUTHWEST VIRGINIA/EAST TENNESSEE...

CITY           SKY/WX    TMP DP  RH WIND       PRES   REMARKS
WISE*          CLEAR     68  68 100 SW3       30.03S FOG
JONESVILLE*      N/A     70  70 100 CALM      29.98R
ABINGDON*      CLEAR     70  70 100 CALM      30.00R FOG
BRISTOL        CLEAR     70  66  87 CALM      29.96R
KNOXVILLE      PTCLDY    73  71  93 CALM      29.93R
OAK RIDGE      CLEAR     73  70  90 CALM      29.95R
CROSSVILLE     PTCLDY    71  68  90 CALM      29.99S FOG
NASHVILLE      PTCLDY    80  74  81 S7        29.89R
$$

...KEY TO REMARKS...
VSB - VISIBILITY IN MILES
WCI - WIND CHILL INDEX
HX  - HEAT INDEX

$$



USA.gov is the U.S. government's official web portal to all federal, state and local government web resources and services.